This is the latest recevied weather packets stored in our database for station/object BAGASKAR. If no packets are shown the sender has not sent any weather packets the latest 10 day(s).
| Time | Temp. | Humidity | Pressure | Rain* | Wind** | Luminosity | Snow |
|---|---|---|---|---|---|---|---|
| 1777729624 | 8.89° C | 85% | 1010.7 hPa | - | - | - | - |
| 1777728424 | 9.44° C | 79% | 1010.8 hPa | - | - | - | - |
| 1777727224 | 9.44° C | 79% | 1010.7 hPa | - | - | - | - |
| 1777726024 | 9.44° C | 78% | 1010.8 hPa | - | - | - | - |
| 1777724824 | 9.44° C | 79% | 1011.1 hPa | - | - | - | - |
| 1777723624 | 9.44° C | 79% | 1011.2 hPa | - | - | - | - |
| 1777722424 | 9.44° C | 80% | 1011.2 hPa | - | - | - | - |
| 1777721224 | 9.44° C | 81% | 1011.3 hPa | - | - | - | - |
| 1777720024 | 9.44° C | 84% | 1011.4 hPa | - | - | - | - |
| 1777718824 | 9.44° C | 82% | 1011.4 hPa | - | - | - | - |
| 1777717623 | 9.44° C | 81% | 1011.4 hPa | - | - | - | - |
| 1777716423 | 9.44° C | 82% | 1011.4 hPa | - | - | - | - |
| 1777715223 | 9.44° C | 81% | 1011.4 hPa | - | - | - | - |
| 1777714023 | 8.89° C | 85% | 1011.5 hPa | - | - | - | - |
| 1777712823 | 9.44° C | 84% | 1011.5 hPa | - | - | - | - |
| 1777711623 | 9.44° C | 81% | 1011.5 hPa | - | - | - | - |
| 1777710423 | 9.44° C | 84% | 1011.7 hPa | - | - | - | - |
| 1777709223 | 9.44° C | 85% | 1011.8 hPa | - | - | - | - |
| 1777708023 | 8.89° C | 95% | 1011.8 hPa | - | - | - | - |
| 1777706823 | 8.33° C | 92% | 1011.9 hPa | - | - | - | - |
| 1777705623 | 8.33° C | 93% | 1011.9 hPa | - | - | - | - |
| 1777704422 | 8.89° C | 93% | 1011.8 hPa | - | - | - | - |
| 1777703222 | 8.33° C | 98% | 1011.7 hPa | - | - | - | - |
| 1777702023 | 7.78° C | 100% | 1011.8 hPa | - | - | - | - |
| 1777700823 | 6.67° C | 100% | 1011.9 hPa | - | - | - | - |
* Rain since midnight (hover to see other rain measurements)
** Current wind speed in m/s (hover to see current wind gust speed)